sat.trackr.live / text

‹ back to catalog

SENTINEL-2C

NORAD 60989 · 2024-157A

PAYLOAD ACTIVE UNKNOWN

§ Identity

Operator
Country
ESA
Launch date
2024-09-05
Launch site
FRGUI
Launch vehicle
Mass (kg)
RCS (m²)

Purposes: earth_obs

External: N2YO · Heavens-Above · Gunter

§ Orbital elements

Epoch: 2026-09-19T03:48:19.506240Z

Period
100.64 min
Inclination
98.5719°
Eccentricity
0.0001361
Mean motion
14.30814319 rev/d
Perigee alt
788.0 km
Apogee alt
790.0 km
Semi-major
7,167.1 km
B*
3.4986e-5
RAAN
335.5848°
Arg perigee
86.1795°
Mean anomaly
273.9544°
Rev number
10,642

§ Raw data

SENTINEL-2C1 60989U 24157A   26262.15855910  .00000048  00000+0  34986-4 0  99982 60989  98.5719 335.5848 0001361  86.1795 273.9544 14.30814319106427

JSON: /api/v1/satellites/60989 · /tle

For live sub-satellite position, see the globe view (requires WebGL).

§ Visibility from observer

Set your observer location to see the next 7 days of passes ≥ 10°. The values pass through the URL so the page stays shareable.

No JS? Fill the form by hand. The geolocation button needs JavaScript.